SARAH-1 (52887 NORAD) Tracking and Keplerian Element Data

This shows tracking and keplerian element data for the satellite.

Feedback or suggestion? Click here.




ElementValue
Catalog52887
NameSARAH-1
Epoch Orbit127
Epoch Day174.76914807
Epoch Year2022
RAAN181.8659
Inclination98.393
Eccentricity0.0001741
Argument of Perigee114.338
Mean Anonmoly245.7128
Mean Motion14.43706701
Decay Rate0.00057931
L11 52887U 22063A 22174.76914807 .00057931 00000+0 16917-1 0 9990
L22 52887 98.3930 181.8659 0001741 114.3380 245.7128 14.43706701 1277

Live tracking and technical data element details for SARAH-1 (NORAD 52887). SARAH-1 can be tracked NOW for your location showing map with azimuth and elevation plus other details from your city location.

Track the satellite on the map from your city or location and see movement details for azimuth, elevation, latitude, longitude, range, height, and movement on the map or in text.







IsCatalogInMostPopularTable: catalog: 52887, numindb: 6
Update: records affected: 1



GetName: 52887 SARAH-1

Hit Count: updated at: Thu, 06 Oct 2022 03:57:24 GMT